Location: Amina
(6.5886°N, 10.8095°W)
Time: 10:19:28
(UTC+00:00)

Daily predictions for brighter satellites

Satellite Brightness Start Highest point End
(mag) Time Altitude Azimuth Time Altitude Azimuth Time Altitude Azimuth
Cosmos 1656 3.7 18:38:58 10° N 18:44:33 72° ENE 18:50:12 10° SSE
EXPRESS MD2 3.7 18:42:42 10° NW 18:45:29 62° SW 18:50:31 10° SSE
CZ-4C R/B 3.0 18:42:22 10° NNE 18:45:41 59° E 18:49:06 10° S
BLOCK DM-SL R/B 4.5 18:41:12 10° WSW 18:46:00 54° S 18:58:00 10° E
Cosmos 921 Rocket 2.9 18:44:20 10° S 18:48:30 85° ESE 18:52:40 10° NNE
Cosmos 1627 Rocket 4.4 18:44:03 10° N 18:50:08 75° E 18:56:14 10° S
COSMO-SKYMED 1 4.0 18:51:31 10° N 18:55:34 41° WNW 18:59:39 10° SSW
Cosmos 1697 Rocket 3.2 18:51:11 10° N 18:56:17 36° ENE 19:01:22 10° SE
Okean O Rocket 2.6 18:52:38 10° SE 18:56:20 26° ENE 19:00:01 10° NNE
CZ-4B DEB 4.3 18:51:29 10° SSE 18:57:02 89° WSW 19:02:33 10° NNW
Cosmos 1980 Rocket 3.6 18:56:55 10° NE 19:00:14 16° ENE 19:03:32 10° ESE
Aureole 3 Rocket 3.6 18:59:52 10° SE 19:02:19 22° E 19:05:00 10° NE
Meteor 1-27 Rocket 4.1 18:58:41 10° SSE 19:03:56 42° E 19:09:07 10° NNE
SWIFT 4.4 19:04:23 10° NNW 19:06:25 13° N 19:08:27 10° NE
Cosmos 1633 Rocket 3.7 19:03:13 10° NNE 19:07:12 35° E 19:11:13 10° SSE
Cosmos 1937 Rocket 3.7 19:02:32 10° N 19:07:38 49° ENE 19:12:41 10° SSE
Meteor 2-21 4.5 19:02:34 10° N 19:08:36 86° W 19:14:39 10° S
Tiangong 3.4 19:07:13 10° W 19:09:28 18° NW 19:11:43 10° N
H-2A R/B 4.1 18:51:22 10° SW 19:09:31 37° S 19:13:20 11° E
Meteosat 1 Rocket2 4.0 19:06:32 10° W 19:10:23 31° NNW 19:13:17 12° NNE
ARGOS 3.3 19:08:22 10° SSE 19:13:35 49° ENE 19:18:46 10° N
USA 234 4.4 19:10:58 10° E 19:15:33 20° NE 19:20:06 10° N
CZ-2D R/B 4.4 19:11:59 10° S 19:15:43 48° W 19:19:25 10° NNW
Cosmos 482 Debris 3.6 19:13:52 10° SSW 19:16:19 58° ESE 19:18:30 20° NE
NOSS 3-3 (A) 3.7 19:12:28 10° SSW 19:17:51 82° WNW 19:23:21 10° NNE
NOSS 3-3 (C) 3.7 19:12:33 10° SSW 19:17:56 83° WNW 19:23:28 10° NNE
CZ-4 R/B 4.5 19:15:54 10° SSE 19:19:54 54° ENE 19:23:54 10° N
USA 229 DEB 4.2 19:13:24 10° N 19:20:48 46° ENE 19:28:17 10° SE
USA 229 4.3 19:13:31 10° N 19:20:53 45° ENE 19:28:20 10° SE
CZ-4 R/B 2.6 19:17:54 10° SE 19:21:06 22° ENE 19:21:25 21° ENE
Cosmos 372 Rocket 4.4 19:16:52 10° N 19:21:44 39° ENE 19:26:34 10° SE
Delta 2 Rocket 3.4 19:19:31 10° WSW 19:24:03 76° NW 19:26:25 24° NE
GPS 2-12 Rocket1 3.1 19:22:18 10° W 19:26:42 61° NNW 19:29:02 26° NE
SL-08 RB Rocket 3.9 19:25:51 10° SSE 19:30:22 51° ENE 19:34:52 10° N
IRAS Rocket 4.5 19:25:16 10° N 19:30:45 72° WNW 19:36:18 10° SSW
CZ-4B R/B 3.3 19:25:19 10° S 19:30:53 83° WSW 19:36:21 10° NNW
Cosmos 1666 Rocket 3.7 19:27:42 10° N 19:32:04 75° W 19:36:24 10° S
Cosmos 1655 Rocket 4.3 19:28:08 10° NNE 19:34:09 45° E 19:40:07 10° SSE
Cosmos 1470 Rocket 3.9 19:31:34 13° NNE 19:35:20 43° E 19:39:35 10° SSE
Cosmos 1833 4.2 19:33:05 10° S 19:38:38 62° ESE 19:42:01 24° NNE
Cosmos 2228 Rocket 3.2 19:34:28 10° SSE 19:38:43 48° E 19:40:17 33° NE
Atlas Centaur 2 1.0 19:37:42 10° WNW 19:41:16 84° SSW 19:42:57 31° SE
NOSS 3-1 (A) 4.3 19:36:09 10° NNW 19:44:58 80° ENE 19:54:08 10° SSE
Sakura Rocket 3.7 19:40:17 10° NW 19:45:03 36° NNE 19:45:16 35° NNE
SL-27 R/B 3.5 19:42:57 10° S 19:45:05 30° SE 19:45:05 30° SE
Gbstr 26 Del rocket 4.0 19:43:12 10° SSW 19:49:53 56° SE 19:51:45 39° ENE
Feng Yun 1-1 Rocket 4.3 19:44:23 10° SSE 19:50:14 70° ENE 19:56:07 10° N
ARIANE 5 R/B 1.8 19:55:25 10° WSW 19:57:41 46° S 19:58:16 41° SE
Cosmos 1553 Rocket 4.3 19:53:15 10° SSE 19:59:10 42° E 19:59:25 42° E
DNEPR-1 R/B 4.0 19:56:25 10° S 20:02:10 56° ESE 20:02:32 54° E
Meteor 1-11 Rocket 3.8 20:01:11 44° NE 20:02:41 56° E 20:08:25 10° SSE
H-2A R/B 3.6 19:58:39 10° N 20:02:45 36° WNW 20:06:48 10° SW
USA 215 4.3 20:04:25 25° ESE 20:04:44 26° SE 20:09:56 10° S
ARIANE 3 DEB 3.8 20:03:21 10° WSW 20:04:57 30° SSW 20:04:57 30° SSW
ARIANE 5 R/B 4.1 20:02:26 10° WSW 20:06:54 40° SSE 20:29:40 10° ESE
CZ-4B R/B 3.1 20:08:51 28° SW 20:08:51 28° SW 20:10:30 10° SSW
GPS 2-14 Rocket1 3.7 20:08:00 10° W 20:11:40 40° SSW 20:11:42 40° SSW
ARIANE 5 R/B 4.0 19:53:02 10° WSW 20:14:08 51° S 20:15:46 39° SE
H-2A R/B 3.3 20:10:59 10° S 20:13:33 39° SSW 20:13:33 39° SSW
Ariane 3 Deb 3.2 19:59:11 10° W 20:16:08 88° N 20:16:53 68° E
YAOGAN 1 3.6 20:18:22 10° S 20:22:29 43° W 20:24:37 24° NW
Meteor 1-19 Rocket 4.4 20:17:24 10° S 20:23:25 79° W 20:24:55 53° N
ARIANE 5 R/B 4.0 20:20:23 10° W 20:24:23 78° S 20:25:36 58° ESE
Ariane H10+ 3.2 20:23:27 10° W 20:39:47 64° S 20:39:47 64° S
Cosmos 1980 Rocket 3.6 20:38:59 10° NW 20:44:00 35° WSW 20:49:02 10° SSW
CZ-4 R/B 4.4 20:53:30 10° SW 20:55:49 14° W 20:57:25 12° WNW
USA 234 3.6 20:58:28 62° WSW 20:58:28 62° WSW 21:04:37 10° NW
VEP-3 4.1 21:11:14 10° W 21:52:43 - ENE 21:15:14 38° NW
